Regional Weather Roundup
Issued by NWS

Home | Current Version | Previous Version | Graphics & Text | Print | Product List | Glossary On
Versions: 1 2 3 4 5 6 7 8 9 10 11 12 13 14 15 16 17 18 19 20 21 22 23 24 25 26 27 28 29 30 31 32 33 34 35 36 37 38 39 40 41 42 43 44 45 46 47 48 49 50
000
ASUS45 KSLC 031510
RWRUT

UTAH REGIONAL WEATHER ROUNDUP
NATIONAL WEATHER SERVICE SALT LAKE CITY UT
900 AM MDT THU SEP 03 2015

UTZ001>011-023>025-031600-

NORTHERN UTAH

CITY           SKY/WX    TMP DP  RH WIND       PRES   REMARKS
BRIGHAM CITY   MOSUNNY   77  34  20 S21G28    29.90S
HILL AFB       MOSUNNY   74  39  28 S15G24    29.95R
LOGAN          SUNNY     77  39  25 S15       29.90R
OGDEN          MOSUNNY   76  39  26 S21       29.91S
PROVO AIRPORT  PTSUNNY   75  41  29 SE7       30.01R
SALT LAKE CITY PTSUNNY   76  41  28 S14       29.92S
VERNAL         PTSUNNY   61  46  57 CALM      30.06R
WENDOVER       MOSUNNY   77  36  22 S20       29.89R
HEBER CITY     PTSUNNY   72  37  28 SW12G20   30.05S
WEST JORDAN    SUNNY     75  45  33 SE14G20   29.96S

$$

UTZ012>022-026-027-031600-

SOUTHERN/CENTRAL UTAH

CITY           SKY/WX    TMP DP  RH WIND       PRES   REMARKS
BLANDING       MOSUNNY   67  50  54 CALM      30.26R
BRYCE CANYON   CLOUDY    57  41  55 CALM      30.25R
CEDAR CITY     PTSUNNY   68  40  35 S10       30.08S
DELTA          CLOUDY    70  36  28 S13       30.01R
HANKSVILLE     PTSUNNY   73  45  35 CALM      30.05R
MILFORD        PTSUNNY   69  40  34 SW10      30.03S
MOAB/CYNLANDS  SUNNY     77  48  35 S7        30.03R
PRICE          MOSUNNY   66  44  45 E8        30.11R
ST GEORGE      PTSUNNY   77  43  29 SE10      29.96R
KANAB          CLOUDY    64  48  55 N8        30.15S

$$

REGIONAL REPORTS     COLORADO/ARIZONA

CITY           SKY/WX    TMP DP  RH WIND       PRES   REMARKS
CRAIG, CO      PTSUNNY   59  50  72 CALM      30.14S
GRAND JUNCTION CLOUDY    70  50  49 SE15      30.08R
RIFLE          PTSUNNY   61  51  70 CALM      30.14S
MONTROSE       CLOUDY    60  56  86 SE8       30.21S
CORTEZ         CLOUDY    64  57  78 CALM      30.20R
PAGE, AZ       PTSUNNY   75  50  41 VRB3      30.06R
GRAND CANYON   PTSUNNY   62  49  62 CALM      30.22S
KINGMAN        SUNNY     78  39  24 VRB3      30.00R
FLAGSTAFF      PTSUNNY   63  45  51 SW10      30.26S

$$

REGIONAL REPORTS    NEVADA/IDAHO/WYOMING

CITY           SKY/WX    TMP DP  RH WIND       PRES   REMARKS
LAS VEGAS, NV  MOSUNNY   82  34  17 S6        29.83R
ELY            SUNNY     66  36  32 S14       30.04R
ELKO           SUNNY     59  32  36 CALM      29.95R
POCATELLO, ID  SUNNY     62  39  42 SW12      29.94R
BURLEY         PTSUNNY   60  40  47 W14G21    29.92R
EVANSTON, WY   PTSUNNY   64  36  35 S9        30.12R
ROCK SPRINGS   MOSUNNY   62  41  46 S6        30.11S
KEMMERER       CLOUDY    59  36  41 CALM      30.12S

$$


USA.gov is the U.S. government's official web portal to all federal, state and local government web resources and services.